N3PL Weather Reports


Display with metric or nautical units.
time (UTC)temp
F
wind
direction
speed
MPH
gust
MPH
rain 1hr
in
rain 24hr
in
rain mn
in
humidity
%
barometer
mb
20260902191103 71 233 0.0 0.0 0.00 0.00 0.05 100 1013.3
20260902190607 72 233 0.0 0.0 0.00 0.00 0.05 100 1013.3
20260902190004 72 233 0.0 0.0 0.00 0.00 0.05 100 1013.3
20260902185556 71 233 0.0 0.0 0.00 0.00 0.05 100 1013.4
20260902185045 71 233 0.0 0.0 0.00 0.00 0.05 100 1013.4
20260902184548 71 233 0.0 0.0 0.00 0.00 0.05 100 1013.4
20260902184052 71 233 0.0 0.0 0.00 0.00 0.05 100 1013.4
20260902183600 71 233 0.0 0.0 0.00 0.00 0.05 100 1013.4
20260902183103 71 233 0.0 0.0 0.00 0.00 0.05 100 1013.4
20260902182505 71 230 0.0 0.0 0.00 0.00 0.05 100 1013.8
20260902182058 71 230 0.0 0.0 0.00 0.00 0.05 100 1013.8
20260902181609 71 234 0.0 0.0 0.00 0.00 0.05 100 1013.8
20260902181104 71 234 0.0 0.0 0.00 0.00 0.05 100 1014.2
20260902180502 71 234 0.0 0.0 0.00 0.00 0.05 100 1014.2
20260902180006 71 234 0.0 0.0 0.00 0.00 0.05 100 1014.2
20260902175557 71 234 0.0 0.0 0.00 0.00 0.05 100 1016.1
20260902175100 71 234 0.0 0.0 0.00 0.00 0.05 100 1016.1
20260902174603 71 234 0.0 0.0 0.00 0.00 0.05 100 1016.1
20260902174001 71 232 0.0 0.0 0.00 0.00 0.05 100 1015.4
20260902173555 71 216 0.0 0.0 0.00 0.00 0.05 100 1015.4
20260902173058 72 216 0.0 0.0 0.00 0.00 0.05 100 1015.4
20260902172608 72 216 0.0 0.0 0.00 0.00 0.05 100 1015.2
20260902172053 72 216 0.0 0.0 0.00 0.00 0.05 100 1015.2
20260902171601 72 216 0.0 0.0 0.00 0.00 0.05 100 1015.2
20260902171106 72 216 0.0 0.0 0.00 0.00 0.05 100 1015.3
20260902170501 72 216 0.0 0.0 0.00 0.00 0.05 100 1015.3
20260902170007 72 216 0.0 0.0 0.00 0.00 0.05 100 1015.3
20260902165507 72 216 0.0 0.0 0.00 0.00 0.05 100 1015.1
20260902165012 72 216 0.0 0.0 0.00 0.00 0.05 100 1015.1
20260902164606 72 216 0.0 0.0 0.00 0.00 0.05 100 1015.1
20260902164001 72 216 0.0 0.0 0.00 0.00 0.05 100 1014.7
20260902163504 72 215 0.0 0.0 0.00 0.00 0.05 100 1014.7
20260902163008 72 215 0.0 0.0 0.00 0.00 0.05 100 1014.7
20260902162511 72 215 0.0 0.0 0.00 0.00 0.04 100 1014.8
20260902162105 71 215 0.0 0.0 0.00 0.00 0.04 100 1014.8
20260902161554 71 215 0.0 0.0 0.00 0.00 0.04 100 1014.8
20260902161100 71 215 0.0 0.0 0.00 0.00 0.04 100 1014.8
20260902160604 71 215 0.0 0.0 0.00 0.00 0.04 100 1014.8
20260902160054 71 215 0.0 0.0 0.00 0.00 0.04 100 1014.8
20260902155555 71 215 0.0 0.0 0.00 0.00 0.04 100 1014.8
20260902155058 71 215 0.0 0.0 0.00 0.00 0.04 100 1014.8
20260902154555 71 215 0.0 0.0 0.00 0.00 0.04 100 1014.8
20260902154105 71 215 0.0 0.0 0.00 0.00 0.04 100 1014.6
20260902153557 71 215 0.0 0.0 0.00 0.00 0.04 100 1014.6
20260902153101 71 215 0.0 0.0 0.00 0.00 0.04 100 1014.6
20260902152603 71 215 0.0 0.0 0.00 0.00 0.04 100 1014.9
20260902152107 71 215 0.0 0.0 0.00 0.00 0.04 100 1014.9
20260902151559 71 215 0.0 0.0 0.00 0.00 0.04 100 1014.9
20260902151104 70 215 0.0 0.0 0.00 0.00 0.04 100 1015.1
20260902150604 70 215 0.0 0.0 0.00 0.00 0.04 100 1015.1
20260902150010 71 215 0.0 0.0 0.00 0.00 0.04 100 1015.1
20260902145601 71 215 0.0 0.0 0.00 0.00 0.04 100 1015.1
20260902145105 70 215 0.0 0.0 0.00 0.00 0.04 100 1015.1
20260902144506 70 215 0.0 0.0 0.00 0.00 0.04 100 1015.1
20260902144005 70 215 0.0 0.0 0.00 0.00 0.04 100 1015.1
20260902143559 70 215 0.0 0.0 0.00 0.00 0.04 100 1015.1
20260902143052 70 215 0.0 0.0 0.00 0.00 0.04 100 1015.1
20260902142550 70 215 0.0 0.0 0.00 0.00 0.04 100 1014.6
20260902142056 70 215 0.0 0.0 0.00 0.00 0.03 100 1014.6
20260902141600 70 124 0.0 0.0 0.00 0.00 0.03 100 1014.6
20260902141002 70 124 0.0 0.0 0.00 0.00 0.03 100 1014.7
20260902140505 70 124 0.0 0.0 0.00 0.00 0.03 100 1014.7
20260902140059 70 124 0.0 0.0 0.00 0.00 0.03 100 1014.7
20260902135602 70 124 0.0 0.0 0.00 0.00 0.03 100 1014.6
20260902135104 70 124 0.0 0.0 0.00 0.00 0.03 100 1014.6
20260902134502 70 124 0.0 0.0 0.00 0.00 0.03 100 1014.6
20260902134004 70 124 0.0 0.0 0.00 0.00 0.03 100 1014.4
20260902133559 70 124 0.0 0.0 0.00 0.00 0.03 100 1014.4
20260902133102 70 124 0.0 0.0 0.00 0.00 0.03 100 1014.4
20260902132604 70 124 0.0 0.0 0.00 0.00 0.03 100 1014.3
20260902132002 70 124 0.0 0.0 0.00 0.00 0.03 100 1014.3
20260902131556 70 124 0.0 0.0 0.00 0.00 0.03 100 1014.3
20260902131059 70 124 0.0 0.0 0.00 0.00 0.03 100 1014.4
20260902130603 70 124 0.0 0.0 0.00 0.00 0.03 100 1014.4
20260902130106 70 124 0.0 0.0 0.00 0.00 0.03 100 1014.4
20260902125502 70 124 0.0 0.0 0.00 0.00 0.03 100 1014.4
20260902125055 70 124 0.0 0.0 0.00 0.00 0.03 100 1014.4
20260902124604 69 124 0.0 0.0 0.00 0.00 0.03 100 1014.4
20260902124057 69 124 0.0 0.0 0.00 0.00 0.03 100 1014.4
20260902123602 69 124 0.0 0.0 0.00 0.00 0.03 100 1014.4
20260902123008 69 124 0.0 0.0 0.00 0.00 0.03 100 1014.4
20260902122601 69 124 0.0 0.0 0.00 0.00 0.03 100 1014.2
20260902122103 70 124 0.0 0.0 0.00 0.00 0.03 100 1014.2
20260902121502 69 124 0.0 0.0 0.00 0.00 0.03 100 1014.2
20260902121009 69 124 0.0 0.0 0.00 0.00 0.03 100 1013.7
20260902120559 70 124 0.0 0.0 0.00 0.00 0.03 100 1013.7
20260902115605 70 124 0.0 0.0 0.00 0.00 0.03 100 1013.6
20260902115002 70 124 0.0 0.0 0.00 0.00 0.03 100 1013.6
20260902114556 70 124 0.0 0.0 0.00 0.00 0.03 100 1013.6
20260902114059 70 124 0.0 0.0 0.00 0.00 0.03 100 1013.6
20260902113602 70 124 0.0 0.0 0.00 0.00 0.03 100 1013.6
20260902113105 70 124 0.0 0.0 0.00 0.00 0.03 100 1013.6
20260902112553 70 124 0.0 0.0 0.00 0.00 0.03 100 1013.7
20260902112056 70 124 0.0 0.0 0.00 0.00 0.03 100 1013.7
20260902111546 70 124 0.0 0.0 0.00 0.00 0.03 100 1013.7
20260902111046 70 124 0.0 0.0 0.00 0.00 0.03 100 1013.6
20260902110557 70 124 0.0 0.0 0.00 0.00 0.03 100 1013.6
20260902110107 70 124 0.0 0.0 0.00 0.00 0.03 100 1013.6
20260902105604 70 124 0.0 0.0 0.00 0.00 0.03 100 1013.5
20260902105002 70 124 0.0 0.0 0.00 0.00 0.02 100 1013.5
20260902104556 70 124 0.0 0.0 0.00 0.00 0.02 100 1013.5
20260902104057 70 124 0.0 0.0 0.00 0.00 0.02 100 1013.4
20260902103607 70 124 0.0 0.0 0.00 0.00 0.02 100 1013.4
20260902103004 70 124 0.0 0.0 0.00 0.00 0.02 100 1013.4
20260902102559 70 124 0.0 0.0 0.00 0.00 0.02 100 1013.5
20260902102100 70 124 0.0 0.0 0.00 0.00 0.02 100 1013.5
20260902101604 70 124 0.0 0.0 0.00 0.00 0.02 100 1013.5
20260902101001 70 124 0.0 0.0 0.00 0.00 0.02 100 1013.2
20260902100555 70 124 0.0 0.0 0.00 0.00 0.02 100 1013.2
20260902100110 70 124 0.0 0.0 0.00 0.00 0.02 100 1013.2
20260902095601 70 124 0.0 0.0 0.00 0.00 0.02 100 1013.1
20260902095104 70 124 0.0 0.0 0.00 0.00 0.02 100 1013.1
20260902094607 70 124 0.0 0.0 0.00 0.00 0.02 100 1013.1
20260902094100 70 124 0.0 0.0 0.00 0.00 0.02 100 1013.0
20260902093607 70 124 0.0 0.0 0.00 0.00 0.02 100 1013.0
20260902093006 70 124 0.0 0.0 0.00 0.00 0.02 100 1013.0
20260902092509 70 124 0.0 0.0 0.00 0.00 0.02 100 1012.8
20260902092012 70 124 0.0 0.0 0.00 0.00 0.02 100 1012.8
20260902091516 70 124 0.0 0.0 0.00 0.00 0.02 100 1012.8
20260902091002 70 124 0.0 0.0 0.00 0.00 0.02 100 1012.9
20260902090506 70 124 0.0 0.0 0.00 0.00 0.02 100 1012.9
20260902090008 70 124 0.0 0.0 0.00 0.00 0.02 100 1012.9
20260902085604 70 124 0.0 0.0 0.00 0.00 0.02 100 1012.8
20260902085104 70 124 0.0 0.0 0.00 0.00 0.02 100 1012.8
20260902084502 70 124 0.0 0.0 0.00 0.00 0.02 100 1012.8
20260902084008 70 124 0.0 0.0 0.00 0.00 0.02 100 1012.7
20260902083509 70 124 0.0 0.0 0.00 0.00 0.02 100 1012.7
20260902083104 70 124 0.0 0.0 0.00 0.00 0.02 100 1012.7
20260902082605 70 124 0.0 0.0 0.00 0.00 0.02 100 1012.6
20260902082002 70 124 0.0 0.0 0.00 0.00 0.02 100 1012.6
20260902081504 70 124 0.0 0.0 0.00 0.00 0.01 100 1012.6
20260902081058 70 124 0.0 0.0 0.00 0.00 0.01 100 1012.5
20260902080602 70 124 0.0 0.0 0.00 0.00 0.01 100 1012.5
20260902080119 70 124 0.0 0.0 0.00 0.00 0.01 100 1012.5
20260902075504 70 124 0.0 0.0 0.00 0.00 0.01 100 1012.5
20260902075005 70 124 0.0 0.0 0.00 0.00 0.01 100 1012.5
20260902074559 70 124 0.0 0.0 0.00 0.00 0.01 100 1012.5
20260902074102 70 124 0.0 0.0 0.00 0.00 0.01 100 1012.4
20260902073604 70 124 0.0 0.0 0.00 0.00 0.01 100 1012.4
20260902073002 70 124 0.0 0.0 0.00 0.00 0.01 100 1012.4
20260902072554 70 124 0.0 0.0 0.00 0.00 0.01 100 1012.2
20260902072101 70 124 0.0 0.0 0.00 0.00 0.01 100 1012.2
20260902071605 70 124 0.0 0.0 0.00 0.00 0.01 100 1012.2
20260902071003 70 124 0.0 0.0 0.00 0.00 0.01 100 1012.1
20260902070558 70 124 0.0 0.0 0.00 0.00 0.01 100 1012.1
20260902070107 70 124 0.0 0.0 0.00 0.00 0.01 100 1012.1
20260902065509 70 124 0.0 0.0 0.00 0.00 0.01 100 1012.1
20260902065100 70 124 0.0 0.0 0.00 0.00 0.01 100 1012.1
20260902064612 69 124 0.0 0.0 0.00 0.00 0.01 100 1012.1
20260902064003 69 124 0.0 0.0 0.00 0.00 0.01 100 1011.9
20260902063557 69 124 0.0 0.0 0.00 0.00 0.01 100 1011.9
20260902063107 69 124 0.0 0.0 0.00 0.00 0.01 100 1011.9
20260902062509 69 124 0.0 0.0 0.00 0.00 0.01 100 1011.7
20260902062059 69 124 0.0 0.0 0.00 0.00 0.01 100 1011.7
20260902061502 69 124 0.0 0.0 0.00 0.00 0.01 100 1011.7
20260902061004 69 124 0.0 0.0 0.00 0.00 0.01 100 1011.5
20260902060506 69 124 0.0 0.0 0.00 0.00 0.01 100 1011.5
20260902060115 69 124 0.0 0.0 0.00 0.00 0.01 100 1011.5
20260902055547 69 124 0.0 0.0 0.00 0.00 0.01 100 1011.6
20260902055050 70 124 0.0 0.0 0.00 0.00 0.01 100 1011.6
20260902054552 70 124 0.0 0.0 0.00 0.00 0.01 100 1011.6
20260902054057 70 124 0.0 0.0 0.00 0.00 0.01 100 1012.0
20260902053559 70 124 0.0 0.0 0.00 0.00 0.01 100 1012.0
20260902053124 70 124 0.0 0.0 0.00 0.00 0.01 100 1012.0
20260902052606 70 124 0.0 0.0 0.00 0.00 0.01 100 1012.1
20260902052053 70 124 0.0 0.0 0.00 0.00 0.01 100 1012.1
20260902051607 70 124 0.0 0.0 0.00 0.00 0.01 100 1012.1
20260902051104 70 124 0.0 0.0 0.00 0.00 0.01 100 1012.5
20260902050505 70 124 0.0 0.0 0.00 0.00 0.01 100 1012.5
20260902050009 70 124 0.0 0.0 0.00 0.00 0.01 100 1012.5
20260902045509 70 124 0.0 0.0 0.00 0.00 0.01 100 1012.5
20260902045102 70 124 0.0 0.0 0.00 0.00 0.01 100 1012.5
20260902044550 70 124 0.0 0.0 0.00 0.00 0.01 100 1012.5
20260902044053 70 124 0.0 0.0 0.00 0.00 0.00 100 1012.3
20260902043556 70 124 0.0 0.0 0.00 0.00 0.00 100 1012.3
20260902043100 70 124 0.0 0.0 0.00 0.00 0.00 100 1012.3
20260902042551 70 124 0.0 0.0 0.00 0.00 0.00 100 1012.3
20260902042053 70 124 0.0 0.0 0.00 0.00 0.00 100 1012.3
20260902041557 70 124 0.0 0.0 0.00 0.00 0.00 100 1012.3
20260902041059 70 124 0.0 0.0 0.00 0.00 0.00 100 1012.3
20260902040549 70 124 0.0 0.0 0.00 0.00 0.00 100 1012.3
20260902040055 70 124 0.0 0.0 0.00 0.00 0.00 100 1012.3
20260902035558 70 124 0.0 0.0 0.00 0.00 0.07 100 1012.4
20260902035045 70 124 0.0 0.0 0.00 0.00 0.07 100 1012.4
20260902034600 70 124 0.0 0.0 0.00 0.00 0.07 100 1012.4
20260902034058 70 124 0.0 0.0 0.00 0.00 0.07 100 1011.6
20260902033503 70 124 0.0 0.0 0.00 0.00 0.07 100 1011.6
20260902033010 70 124 0.0 0.0 0.00 0.00 0.07 100 1011.6
20260902032510 70 124 0.0 0.0 0.00 0.00 0.07 100 1011.4
20260902032103 70 124 0.0 0.0 0.00 0.00 0.07 100 1011.4
20260902031606 70 124 0.0 0.0 0.00 0.00 0.07 100 1011.4
20260902031002 70 124 0.0 0.0 0.00 0.00 0.07 100 1011.3
20260902030559 70 124 0.0 0.0 0.00 0.00 0.07 100 1011.3
20260902030044 69 124 0.0 0.0 0.00 0.00 0.07 100 1011.3
20260902025552 69 124 0.0 0.0 0.00 0.00 0.07 100 1011.0
20260902025105 70 124 0.0 0.0 0.00 0.00 0.07 100 1011.0
20260902024505 70 124 0.0 0.0 0.00 0.00 0.07 100 1011.0
20260902024057 70 124 0.0 0.0 0.00 0.00 0.07 99 1010.2
20260902023545 70 124 0.0 0.0 0.00 0.00 0.07 100 1010.2
20260902023048 70 124 0.0 0.0 0.00 0.00 0.06 99 1010.2
20260902022554 70 124 0.0 0.0 0.00 0.00 0.06 100 1010.1
20260902022057 70 89 0.0 0.0 0.00 0.00 0.06 100 1010.1
20260902021544 70 110 0.0 0.0 0.00 0.00 0.06 100 1010.1
20260902021049 70 110 0.0 0.0 0.00 0.00 0.06 99 1010.3
20260902020553 70 110 0.0 0.0 0.00 0.00 0.06 99 1010.3
20260902015602 70 110 0.0 0.0 0.00 0.00 0.06 99 1009.9
20260902015106 70 110 0.0 0.0 0.00 0.00 0.06 99 1009.9
20260902014507 70 110 0.0 0.0 0.00 0.00 0.06 99 1009.9
20260902014100 70 110 0.0 0.0 0.00 0.00 0.06 99 1010.1
20260902013602 69 110 0.0 0.0 0.00 0.00 0.06 99 1010.1
20260902013106 69 110 0.0 0.0 0.00 0.00 0.06 99 1010.1
20260902012503 69 110 0.0 0.0 0.00 0.00 0.06 99 1009.6
20260902012056 69 110 0.0 0.0 0.00 0.00 0.06 99 1009.6
20260902011545 69 110 0.0 0.0 0.00 0.00 0.06 99 1009.6
20260902011048 69 110 0.0 0.0 0.00 0.00 0.06 99 1010.2
20260902010550 69 110 0.0 0.0 0.00 0.00 0.06 99 1010.2
20260902010101 69 110 0.0 0.0 0.00 0.00 0.06 99 1010.2
20260902005600 69 110 0.0 0.0 0.00 0.00 0.06 98 1010.2
20260902005105 69 110 0.0 0.0 0.00 0.00 0.06 98 1010.2
20260902004555 69 110 0.0 0.0 0.00 0.00 0.06 98 1010.2
20260902004059 69 112 0.0 0.0 0.00 0.00 0.06 97 1011.5
20260902003606 69 308 2.0 0.0 0.00 0.00 0.06 96 1011.5
20260902003004 70 289 4.0 0.0 0.00 0.00 0.06 92 1011.5
20260902002557 72 254 3.0 0.0 0.00 0.00 0.06 87 1008.5
20260902002104 76 280 0.0 0.0 0.00 0.00 0.06 80 1008.5
20260902001505 81 302 0.0 0.0 0.00 0.00 0.06 84 1008.5
20260902001058 81 11 0.0 0.0 0.00 0.00 0.06 84 1007.9
20260902000601 81 11 0.0 0.0 0.00 0.00 0.06 84 1007.9
20260902000105 81 11 0.0 0.0 0.00 0.00 0.06 84 1007.9
20260901235503 82 11 0.0 0.0 0.00 0.00 0.06 83 1007.4
20260901235055 82 11 0.0 0.0 0.00 0.00 0.06 83 1007.4
20260901234601 82 11 0.0 0.0 0.00 0.00 0.06 81 1007.4
20260901234103 82 11 0.0 0.0 0.00 0.00 0.06 81 1007.8
20260901233605 83 11 0.0 0.0 0.00 0.00 0.06 81 1007.8
20260901233054 83 11 0.0 0.0 0.00 0.00 0.06 82 1007.8
20260901232556 83 11 0.0 0.0 0.00 0.00 0.06 81 1008.4
20260901232105 83 11 0.0 0.0 0.00 0.00 0.06 80 1008.4
20260901231606 84 11 0.0 0.0 0.00 0.00 0.06 79 1008.4
20260901231054 84 11 0.0 0.0 0.00 0.00 0.06 77 1008.3
20260901230557 84 11 0.0 0.0 0.00 0.00 0.06 76 1008.3
20260901230100 84 11 0.0 0.0 0.00 0.00 0.05 75 1008.3
20260901225604 84 11 0.0 0.0 0.00 0.00 0.05 75 1008.4
20260901225106 84 11 0.0 0.0 0.00 0.00 0.05 75 1008.4
20260901224558 85 11 0.0 0.0 0.00 0.00 0.05 75 1008.4
20260901224058 85 11 0.0 0.0 0.00 0.00 0.05 74 1008.3
20260901223600 85 11 0.0 0.0 0.00 0.00 0.05 74 1008.3
20260901223103 85 11 0.0 0.0 0.00 0.00 0.05 74 1008.3
20260901222551 85 11 0.0 0.0 0.00 0.00 0.05 72 1008.4
20260901222054 85 11 0.0 0.0 0.00 0.00 0.05 71 1008.4
20260901221544 86 11 0.0 0.0 0.00 0.00 0.05 70 1008.4
20260901221044 86 11 0.0 0.0 0.00 0.00 0.05 69 1008.3
20260901220547 86 11 0.0 0.0 0.00 0.00 0.05 68 1008.3
20260901220059 87 11 0.0 0.0 0.00 0.00 0.05 68 1008.3
20260901215603 87 11 0.0 0.0 0.00 0.00 0.05 67 1008.4
20260901215003 87 11 0.0 0.0 0.00 0.00 0.05 66 1008.4
20260901214508 87 11 0.0 0.0 0.00 0.00 0.05 66 1008.4
20260901214014 87 11 0.0 0.0 0.00 0.00 0.05 66 1008.4
20260901213605 87 11 0.0 0.0 0.00 0.00 0.05 66 1008.4
20260901213005 87 11 0.0 0.0 0.00 0.00 0.05 65 1008.4
20260901212507 87 11 0.0 0.0 0.00 0.00 0.05 65 1008.4
20260901212100 87 11 0.0 0.0 0.00 0.00 0.05 65 1008.4
20260901211603 88 11 0.0 0.0 0.00 0.00 0.05 65 1008.4
20260901211107 88 11 0.0 0.0 0.00 0.00 0.05 65 1008.4
20260901210502 87 11 0.0 0.0 0.00 0.00 0.05 65 1008.4
20260901210006 87 11 0.0 0.0 0.00 0.00 0.05 65 1008.4
20260901205600 87 11 0.0 0.0 0.00 0.00 0.05 65 1008.6
20260901205104 87 11 0.0 0.0 0.00 0.00 0.05 64 1008.6
20260901204606 87 11 0.0 0.0 0.00 0.00 0.05 65 1008.6
20260901204006 87 11 0.0 0.0 0.00 0.00 0.05 65 1008.8
20260901203559 87 11 0.0 0.0 0.00 0.00 0.05 65 1008.8
20260901203105 87 11 0.0 0.0 0.00 0.00 0.04 65 1008.8
20260901202606 87 11 0.0 0.0 0.00 0.00 0.04 65 1009.0
20260901202002 87 294 0.0 0.0 0.00 0.00 0.04 65 1009.0
20260901201556 87 294 0.0 0.0 0.00 0.00 0.04 65 1009.0
20260901201100 87 294 0.0 0.0 0.00 0.00 0.04 65 1008.9
20260901200503 87 263 0.0 0.0 0.00 0.00 0.04 65 1008.9
20260901200006 87 261 0.0 0.0 0.00 0.00 0.04 63 1008.9
20260901195559 87 261 0.0 0.0 0.00 0.00 0.04 64 1009.1
20260901195102 87 261 0.0 0.0 0.00 0.00 0.04 63 1009.1
20260901194616 87 261 0.0 0.0 0.00 0.00 0.04 64 1009.1
20260901194004 87 261 0.0 0.0 0.00 0.00 0.04 64 1009.2
20260901193557 87 244 0.0 0.0 0.00 0.00 0.04 63 1009.2
20260901193110 87 244 0.0 0.0 0.00 0.00 0.04 63 1009.2
20260901192602 87 244 0.0 0.0 0.00 0.00 0.04 63 1009.4
20260901192106 87 251 0.0 0.0 0.00 0.00 0.04 65 1009.4